{"data":{"norad_id":50495,"intl_designator":"2021-132AC","name":"ONEWEB-0420","alt_names":[],"object_type":"PAYLOAD","status":"ACTIVE","operator":null,"country":"UK","launch_date":"2021-12-27","launch_site_code":"TYMSC","launch_vehicle":null,"mission":null,"orbit_class":"UNKNOWN","rcs_meters":null,"size_class":null,"mass_kg":null,"dimensions":null,"purposes":["comms"],"wikipedia_slug":null,"has_3d_model":false,"image_url":null,"decayed_at":null,"tle_current":{"epoch":"2026-05-25T02:32:23.775072Z","epoch_age_seconds":66695,"freshness":"FRESH","line1":"1 50495U 21132AC  26145.10583073 -.00000003  00000+0 -41252-4 0  9999","line2":"2 50495  87.9161 340.0540 0001669  84.7322 275.4001 13.18687149218537","mean_motion":13.18687149,"eccentricity":0.0001669,"inclination_deg":87.9161,"raan_deg":340.054,"arg_perigee_deg":84.7322,"mean_anomaly_deg":275.4001,"bstar":-4.1252e-5,"rev_number":21853,"period_min":109.19951719344,"perigee_km":1188.4756523709,"apogee_km":1191.0018092898,"semimajor_km":7567.8757308303,"source":"CELESTRAK","updated_at":"2026-05-25T13:38:22.533827Z"}}}